Regional Weather Roundup
Issued by NWS

Home | Current Version | Previous Version | Text Only | Print | Product List | Glossary Off
Versions: 1 2 3 4 5 6 7 8 9 10 11 12 13 14 15 16 17 18 19 20 21 22 23 24 25 26 27 28 29 30 31 32 33 34 35 36 37 38 39 40 41 42 43 44 45 46 47 48 49 50

000
ASUS43 KIND 281309
RWRIN

WEATHER ROUNDUP FOR INDIANA
NATIONAL WEATHER SERVICE INDIANAPOLIS IN
900 AM EDT SAT MAR 28 2015

NOTE: "FAIR" INDICATES FEW OR NO CLOUDS BELOW 12,000 FEET WITH NO
SIGNIFICANT WEATHER AND/OR OBSTRUCTIONS TO VISIBILITY.

* - STATION DOES NOT REPORT WEATHER SUCH AS PRECIPITATION OR FOG.

+ - STATION NOT QUALITY CONTROLLED BY THE NATIONAL WEATHER SERVICE.
    USE DATA WITH CAUTION...ESPECIALLY DEWPOINT AND RELATIVE
    HUMIDITY OBSERVATIONS.

INZ001>003-010>013-019-020-281400-
NORTHWEST INDIANA

CITY           SKY/WX    TMP DP  RH WIND       PRES   REMARKS
GARY /AIRPORT/ SUNNY     23   7  50 SE7       30.31R WCI  15
KNOX *+          N/A     19   1  45 NE5       30.29R WCI  13
LA PORTE +     SUNNY     20   9  60 E5        30.30R WCI  14
MICHIGAN CITY+ SUNNY     19   3  49 E5        30.31R WCI  13
MONTICELLO +   SUNNY     20  12  71 NE6       30.28R WCI  12
RENSSELAER +   SUNNY     21  16  79 NE8       30.29R WCI  12
VALPARAISO     SUNNY     19   9  65 NE7       30.29R WCI  10

$$

LMZ046-743>745-281400-
SOUTHERN LAKE MICHIGAN

STATION/POSITION TIME  TEMP WIND        PRES
                       AIR  DIR/SP/G
                 (UTC) (F)  (DEG/KT/KT) (MB)
BURNS HARBOR     1300   20  100/  6/  8 1026.4S
MICHIGAN CITY    1300   19   70/  6/  7   N/A

$$

INZ004-005-014>016-021>024-281400-
NORTH CENTRAL INDIANA

CITY           SKY/WX    TMP DP  RH WIND       PRES   REMARKS
ELKHART        SUNNY     19   7  58 CALM      30.30R
GOSHEN         SUNNY     19  10  68 E3        30.28R
LOGANSPORT +   SUNNY     19  14  79 N7        30.29R WCI  10
PERU/GRISSOM   SUNNY     20  13  73 NE8       30.26R WCI  10
ROCHESTER +    SUNNY     21  14  73 NE3       30.29R
SOUTH BEND     SUNNY     19   8  62 NE5       30.30R WCI  12
WARSAW +       SUNNY     19  10  68 E5        30.28R WCI  13

$$

INZ006>009-017-018-025>027-281400-
NORTHEAST INDIANA

CITY           SKY/WX    TMP DP  RH WIND       PRES   REMARKS
ANGOLA *+      SUNNY     18   9  68 VRB3      30.26R
AUBURN +       SUNNY     21   9  58 N7        30.27R WCI  13
FORT WAYNE     SUNNY     20   7  57 NE8       30.27R WCI  10
HUNTINGTON +   SUNNY     20   5  51 NE6       30.27R WCI  12

$$

INZ028-029-035-036-043>045-051>053-281400-
WEST CENTRAL INDIANA

CITY           SKY/WX    TMP DP  RH WIND       PRES   REMARKS
CRAWFORDSVL +  SUNNY     19   9  65 NE7       30.27R WCI  10
GREENCASTLE +  SUNNY     21  12  68 N6        30.27R WCI  14
LAFAYETTE      SUNNY     21  13  71 NE8       30.29R WCI  11
TERRE HAUTE    SUNNY     23  15  71 N8        30.29R WCI  14

$$

INZ030>032-037>040-046>048-054>057-064-065-281400-
CENTRAL INDIANA

CITY           SKY/WX    TMP DP  RH WIND       PRES   REMARKS
ANDERSON       SUNNY     16 N/A N/A N6        30.24  WCI   7
CP ATTERBURY + SUNNY     23  18  80 N7        30.27R WCI  15
COLUMBUS       SUNNY     21  12  68 N9        30.27  WCI  11
FISHERS *+     SUNNY     19  16  86 N5        30.26R WCI  13
FRANKFORT +    SUNNY     21  16  79 N8        30.28R WCI  12
GREENWOOD *+   SUNNY     21  14  73 N8        30.26R WCI  12
INDIANAPOLIS   MOSUNNY   22  13  68 N10       30.25R WCI  11
-EAGLE CREEK   SUNNY     21  13  71 N8        30.25R WCI  11
KOKOMO *+        N/A     21  14  73 NE8       30.27R WCI  12
MARION +       SUNNY     20  13  76 E12       30.27R WCI   8
MT COMFORT *+  SUNNY     23   9  54 N9        30.26R WCI  13
SHELBYVILLE    SUNNY     23  14  68 N9        30.25R WCI  13
ZIONSVILLE +   SUNNY     21  14  75 N8        30.26R WCI  12

$$

INZ033-034-041-042-049-050-058-059-281400-
EAST CENTRAL INDIANA

CITY           SKY/WX    TMP DP  RH WIND       PRES   REMARKS
MUNCIE         SUNNY     21  15  78 E10       30.25R WCI  10

$$

INZ060-061-067>069-081>083-085>088-281400-
SOUTHWEST INDIANA

CITY           SKY/WX    TMP DP  RH WIND       PRES   REMARKS
EVANSVILLE     MOSUNNY   27  15  61 N9        30.29R WCI  18
HUNTINGBURG *+ SUNNY     23  12  63 NE9       30.28R WCI  13
WASHINGTON +   SUNNY     23  13  65 N6        30.29R WCI  16

$$

INZ062-063-066-070>080-084-089>092-281400-
SOUTH CENTRAL AND SOUTHEAST INDIANA

CITY           SKY/WX    TMP DP  RH WIND       PRES   REMARKS
BEDFORD +      SUNNY     21  14  73 N7        30.26R WCI  13
BLOOMINGTON    SUNNY     22  15  75 N7        30.25R WCI  13
NORTH VERNON + SUNNY     23  16  74 N6        30.25R WCI  16
SEYMOUR +      SUNNY     25  16  68 N8        30.27R WCI  16

$$




USA.gov is the U.S. government's official web portal to all federal, state and local government web resources and services.